Regional Weather Roundup
Issued by NWS Northern Indiana

Home | Current Version | Previous Version | Graphics & Text | Print | Product List | Glossary On
Versions: 1 2 3 4 5 6 7 8 9 10 11 12 13 14 15 16 17 18 19 20 21 22 23 24 25 26 27 28 29 30 31 32 33 34 35 36 37 38 39 40 41 42 43 44 45 46 47 48 49 50
000
ASUS43 KIWX 221410
RWRIWX

KIWX WEATHER ROUNDUP
NATIONAL WEATHER SERVICE NORTHERN INDIANA
900 AM EST WED NOV 22 2017

NOTE: "FAIR" INDICATES FEW OR NO CLOUDS BELOW 12,000 FEET WITH NO
SIGNIFICANT WEATHER AND/OR OBSTRUCTIONS TO VISIBILITY.

* THESE STATIONS ARE NOT UNDER NWS QUALITY CONTROL. THEY ALSO MAY NOT
  REPORT WEATHER SUCH AS PRECIPITATION OR FOG.

INZ001>027-221500-
NORTHERN INDIANA

CITY           SKY/WX    TMP DP  RH WIND       PRES   REMARKS
GARY*          MOSUNNY   27  16  63 W8        30.34S WCI  18
VALPARAISO     CLOUDY    31  22  69 SW7       30.31R WCI  24
MICHIGAN CITY* CLOUDY    32  23  69 CALM      30.30S
LAPORTE*       CLOUDY    31  23  72 SW3       30.30R
KNOX*          CLOUDY    32  23  69 W3        30.30S
SOUTH BEND     CLOUDY    31  24  75 NE5       30.29R WCI  26
ELKHART*       CLOUDY    30  21  69 NE5       30.28S WCI  25
GOSHEN         CLOUDY    31  20  63 NE6       30.29R WCI  25
MONTICELLO*    CLOUDY    26  19  76 NW8       30.32S WCI  17
LOGANSPORT*    CLOUDY    28  21  74 W5        30.33R WCI  23
ROCHESTER*     CLOUDY    32  25  74 W6        30.30S WCI  26
WARSAW*        CLOUDY    32  23  69 N7        30.29R WCI  26
AUBURN*        CLOUDY    32  21  64 N8        30.28R WCI  25
FORT WAYNE     CLOUDY    34  24  67 N13       30.29R WCI  25
HUNTINGTON*    CLOUDY    31  26  80 W3        30.29R
PERU/GRISSOM   CLOUDY    28  21  77 NW7       30.31R WCI  20
MARION*        SUNNY     28  24  83 NW8       30.31R WCI  20

$$
INZ028>050-221500-
CENTRAL INDIANA

CITY           SKY/WX    TMP DP  RH WIND       PRES   REMARKS
LAFAYETTE      SUNNY     25  18  74 VRB5      30.35R WCI  19
KOKOMO*        CLOUDY    28  22  78 NW8       30.32R WCI  20
MUNCIE*        SUNNY     30  23  75 NW9       30.29R WCI  22
INDIANAPOLIS   MOSUNNY   27  20  75 NW12      30.33R WCI  17

$$
MIZ043>046-050>051-056>058-064>065-071>073-077>080-221500-
SOUTHWEST LOWER MICHIGAN

CITY           SKY/WX    TMP DP  RH WIND       PRES   REMARKS
BATTLE CREEK   CLOUDY    29  17  61 N5        30.28R WCI  24
BENTON HARBOR  CLOUDY    31  19  61 E6        30.29S WCI  25
COLDWATER*     CLOUDY    30  17  58 N6        30.28R WCI  24
HILLSDALE*     CLOUDY    28  16  59 NW12      30.25R WCI  18
HOLLAND        CLOUDY    31  19  61 E5        30.29S WCI  26
GRAND RAPIDS   CLOUDY    30  18  60 NW6       30.27S WCI  24
KALAMAZOO      CLOUDY    30  14  51 NE5       30.28S WCI  25
STURGIS*       CLOUDY    29  18  65 N6        30.28R WCI  23
THREE RIVERS*  CLOUDY    31  18  60 N5        30.29S WCI  26

$$
OHZ001>008-015>018-024>025-221500-
NORTHWEST OHIO

CITY           SKY/WX    TMP DP  RH WIND       PRES   REMARKS
WAUSEON*       CLOUDY    32  23  69 N10       30.26R WCI  24
DEFIANCE       CLOUDY    32  18  56 N8        30.28R WCI  25
FINDLAY        CLOUDY    32  20  61 N10       30.25R WCI  24
TOLEDO EXPRESS CLOUDY    32  21  64 N9        30.27R WCI  24
TOLEDO METCALF CLOUDY    32  20  61 N7        30.28R WCI  26
LIMA           CLOUDY    31  21  66 N12       30.26R WCI  22

$$
AND FOR LAKE MICHIGAN COASTAL AND OPEN LAKE BUOY OBSERVATIONS

STATION/POSITION TEMP    WIND        PRES    VSBY  WAVE
                 AIR SEA DIR/SP/G                  HT/PER
                 (F)     (DEG/KT/KT) (MB)    (MI)  (FT/S)
CALUMET HARBOR    25     270/  5/  8 1026.3S
MICHIGAN CITY     33     310/  7/  9   N/A
BURNS HARBOR      32     340/  7/ 12 1026.8S
SAINT JOSEPH      31      60/  2/  4 1026.8
SOUTH LAKE BUOY   30 47  340/ 10/ 14 1026.9          4/ 7

$$
&&




USA.gov is the U.S. government's official web portal to all federal, state and local government web resources and services.